Location: Balsareny
(41.8670°N, 1.8830°E)
Time: 22:03:15
(UTC+01:00)

ISS - Pass Details

Date: 05 December 2021
Orbit: 413 x 422 km, 51.6° (Epoch: 25 January)

Event Time Altitude Azimuth Distance (km) Brightness Sun altitude
Rises 18:36:57 0° 307° (NW) 2,384 0.6 -13.6°
Reaches altitude 10° 18:39:06 10° 312° (NW) 1,514 -0.5 -14.0°
Maximum altitude 18:42:26 51° 30° (NNE) 539 -3.5 -14.6°
Enters shadow 18:43:44 31° 90° (E) 774 -3.0 -14.9°
